Starlink 31959

operational
NORAD ID: 59925 Int'l Des: 2024-106 Owner: SPXS Country: US Constellation: starlink
LEOCIRCULAR

Über Starlink 31959

Beschreibung wird geladen...

Live-Position

3D-Globus wird geladen...

Nächste Überflüge

Höhenverlauf

Altitude vs Time

uPlot chart will show altitude changes over time

Zweizeiliger Elementsatz

1 59925U 24106D 25257.32517561 -.00000640 00000-0 -13734-4 0 9998
2 59925 43.0007 244.6942 0000594 250.5681 109.5106 15.27589616 73598
Epoch: 14. Sept. 2025 • Age: 28 hours

Aktueller Status

Höhe 491.5 km
Geschwindigkeit 7.62 km/s
Subsatellitenpunkt -32.05°S, 66.92°W
Startdatum 1. Juni 2024
Alter 1.2 years
Typ internet

Technische Details

Klassifizierung Payload
Masse 730.00 kg
Trockenmasse 700.00 kg
Gesamtmasse 730.00 kg
Länge 0.30 m
Durchmesser 4.10 m
Spannweite 29.00 m
Form Box + pan
Hersteller SPXS
Bus-Typ Starlink V2M
Phasenstatus In Orbit
Besitzer/Staat SPXS/US

Große Konstellationen

Loading constellations...